DELTA 1 DEB, 7064

Orbit data source: Space-Track

DELTA 1 DEB, 7064 is space debris in SSO originally from a launch on Tue, 06 Nov 1973 UTC launched from the Air Force Western Test Range (AFWTR). Debris objects in space refer to the collection of defunct objects orbiting the Earth. Examples of debris include non-operational satellites, rocket bodies, and fragments generated from explosions, collisions, or faulty payload assembly.

Loading next visibility...
Identifier
7064, 1973-086BG
Orbit
SSO
Country
Flag of USUS
Related business
Manufacturer
Unknown
Mission
Spacecraft
Bus & Motor
Unknown
Mass
Unknown
Launch date (UTC)
1973-11-06 (52 years ago)
Launch vehicle
Unknown
Launch site
Air Force Western Test Range (AFWTR)
Object type
Payload
Rocket body
Debris
Shape & HBR
Unknown shape, 0.1 m
Radar Cross Section
Small (<0.1 m²)

Expand to show TLE details & history
Last TLE update: 1 day ago

TLE from 1 day ago
0 DELTA 1 DEB
1 07064U 73086BG  25292.07193189  .00000080  00000-0  55271-3 0  9990
2 07064 101.6966 139.6572 0181249 118.8273  47.0005 12.75411002415410
Epoch: 2025-10-19T01:43Z
TLE epoch observation values (Epoch: 2025-10-19T01:43:34.915Z)
Latitude
12.32731°
Longitude
-91.45209°
Altitude
1,267.556 km
Speed
7.267 km/s
True Right ascension
21h 28m 56s
True Declination
12° 15' 38"
Sunlit
Object was in daylight at epoch
Visualization orbit readout
Latitude
Unknown
Longitude
Unknown
Altitude
Unknown
Speed
Unknown
Apparent Right ascension
Unknown
Apparent Declination
Unknown
Sunlit
N/A
Visualization observer readout
Local Sidereal Time
01:41:37
Azimuth
Unknown
Elevation
Unknown
Doppler factor
Unknown
Orbital elements
Apogee altitude
1,497.693 km
Perigee altitude
1,217.278 km
Semi-major axis
7,735.622 km
Eccentricity
0.01812
Inclination
101.6966°
RAAN
139.6572°
Arg. of periapsis
118.8273°
True anomaly
48.54314°
Mean anomaly
47.0005°
Eccentric anomaly
47.76944°
Mean motion
3.19007 °/min
Orbital period
112.85 mins
BSTAR
0.00055271
Loading maneuver chart data...
Computing Atmospheric mass density...
Loading historical data...
Loading historical data...
Loading historical data...
Loading historical data...
Loading historical data...
Loading historical data...
Loading historical data...

Documentation

Showing up to 5 results
|